Regional Weather Roundup
Issued by NWS

Home | Current Version | Previous Version | Graphics & Text | Print | Product List | Glossary On
Versions: 1 2 3 4 5 6 7 8 9 10 11 12 13 14 15 16 17 18 19 20 21 22 23 24 25 26 27 28 29 30 31 32 33 34 35 36 37 38 39 40 41 42 43 44 45 46 47 48 49 50
000
ASUS43 KOAX 310310
RWRNE

WEATHER ROUNDUP FOR NEBRASKA
NATIONAL WEATHER SERVICE OMAHA NE
1000 PM CDT WED JUL 30 2014

NOTES: SATELLITE DATA IS BEING USED TO AUGMENT CLOUD COVER ABOVE
       12000 FEET.
       "FAIR" INDICATES FEW OR NO CLOUDS BELOW 12,000 FEET WITH NO
       SIGNIFICANT WEATHER AND/OR OBSTRUCTIONS TO VISIBILITY.

  * THESE STATIONS DO NOT REPORT WEATHER SUCH AS RAIN...SNOW OR FOG.

NEZ001>004-019>022-054>056-310400-
NEBRASKA PANHANDLE

CITY           SKY/WX    TMP DP  RH WIND       PRES   REMARKS
SCOTTSBLUFF    MOCLDY    68  58  70 SW8       30.22S
ALLIANCE       MOCLDY    61  52  72 W8        30.20S
CHADRON        MOCLDY    67  50  54 E3        30.15R
KIMBALL        CLOUDY    61  58  90 W8        30.28S
SIDNEY         CLOUDY    63  57  81 W8        30.28R
$$

NEZ057>060-069>072-079>082-310400-
SOUTHWEST NEBRASKA

CITY           SKY/WX    TMP DP  RH WIND       PRES   REMARKS
NORTH PLATTE   MOCLDY    64  57  78 E5        30.16S
IMPERIAL       CLOUDY    68  59  73 W7        30.21R
LEXINGTON      MOCLDY    68  60  76 S6        30.16R
MCCOOK         CLOUDY    71  57  61 S3        30.17S
OGALLALA       MOCLDY    62  57  83 W5        30.20S
$$

NEZ005>010-023>029-035>040-094-310400-
NORTH CENTRAL NEBRASKA

CITY           SKY/WX    TMP DP  RH WIND       PRES   REMARKS
VALENTINE      CLOUDY    75  52  44 S7        30.10F
AINSWORTH      MOCLDY    67  54  62 S5        30.12S
BROKEN BOW     PTCLDY    62  59  90 CALM      30.15R
O`NEILL        PTCLDY    70  59  69 SE6       30.13R
ORD            MOCLDY    67  59  75 S6        30.12S
THEDFORD       MOCLDY    71  53  51 S6        30.16S
$$

NEZ041-046>049-061>064-073>077-083>087-310400-
SOUTH CENTRAL NEBRASKA

CITY           SKY/WX    TMP DP  RH WIND       PRES   REMARKS
GRAND ISLAND   PTCLDY    68  59  73 S6        30.14S
AURORA         PTCLDY    67  59  76 CALM      30.14R
HASTINGS       PTCLDY    68  53  58 SE3       30.15R
HEBRON         PTCLDY    63  54  71 CALM      30.14R
HOLDREGE       PTCLDY    65  58  77 CALM      30.16R
KEARNEY *      MOCLDY    66  57  72 S7        30.16R
YORK           MOCLDY    66  57  72 S3        30.13S
$$

NEZ011>018-030>034-042>045-310400-
NORTHEAST NEBRASKA

CITY           SKY/WX    TMP DP  RH WIND       PRES   REMARKS
NORFOLK        PTCLDY    66  56  70 SE3       30.12R
ALBION         MOCLDY    66  58  75 CALM      30.13R
BLAIR          PTCLDY    69  51  53 E3        30.12R
COLUMBUS *     MOCLDY    63  55  77 CALM      30.12R
FREMONT        MOCLDY    72  55  56 CALM      30.12R
TEKAMAH        PTCLDY    63  57  81 CALM      30.11R
WAYNE          CLEAR     62  57  83 CALM      30.12S
$$

NEZ050>053-065>068-078-088>093-310400-
SOUTHEAST NEBRASKA

CITY           SKY/WX    TMP DP  RH WIND       PRES   REMARKS
LINCOLN        PTCLDY    71  53  52 CALM      30.12R
OMAHA EPPLEY   PTCLDY    69  58  67 CALM      30.11R
BEATRICE       PTCLDY    65  58  77 NE3       30.12R
FALLS CITY     CLEAR     69  56  62 NW3       30.10R
NEBRASKA CITY  PTCLDY    70  54  56 CALM      30.12R
PLATTSMOUTH    PTCLDY    70  55  59 CALM      30.12R
$$

NEZ044-045-051>053-067-310400-
OMAHA AREA

CITY           SKY/WX    TMP DP  RH WIND       PRES   REMARKS
OMAHA EPPLEY   PTCLDY    69  58  67 CALM      30.11R
BLAIR          PTCLDY    69  51  53 E3        30.12R
FREMONT        MOCLDY    72  55  56 CALM      30.12R
MILLARD        MOCLDY    68  57  68 CALM      30.11R
OFFUTT AFB     PTCLDY    63  62  97 CALM      30.11R
PLATTSMOUTH    PTCLDY    70  55  59 CALM      30.12R
WAHOO          FAIR      68  57  68 CALM      30.11S
$$



USA.gov is the U.S. government's official web portal to all federal, state and local government web resources and services.